Torna al catalogo

CZ-2C DEB

AttivoPO
NORAD 40265·DEBRIS·🇨🇳 China

Lanciato Sep 28, 2014 da Jiuquan Satellite Launch Center

Loading…

Prossimi Passaggi (prossime 24 ore)

TLE

AggiornatoSource: Space-Track

Epoca: Sep 14, 2026, 02:38 UTC

1 40265U 14059E   26257.11040374  .00001340  00000-0  43878-3 0  9999
2 40265  97.9200 323.0754 0161531 206.9640 152.3086 14.32793365620897

Traccia CZ-2C DEB in tempo reale con AllMySat

Download on the App Store